Regional Weather Roundup
Issued by NWS

Home | Current Version | Previous Version | Graphics & Text | Print | Product List | Glossary On
Versions: 1 2 3 4 5 6 7 8 9 10 11 12 13 14 15 16 17 18 19 20 21 22 23 24 25 26 27 28 29 30 31 32 33 34 35 36 37 38 39 40 41 42 43 44 45 46 47 48 49 50
000
ASUS44 KMEG 221900
RWRTN
TENNESSEE HOURLY STATE WEATHER ROUNDUP
NATIONAL WEATHER SERVICE MEMPHIS TN
100 PM CST MON DEC 22 2014

TNZ002-004-019-021-049-052-054-088>092-222000-
WEST TENNESSEE

CITY           SKY/WX    TMP DP  RH WIND       PRES   REMARKS
MEMPHIS INTL   CLOUDY    59  52  77 S16       29.67F
NWS MEMPHIS      N/A     56 N/A N/A MISG        N/A
JACKSON        CLOUDY    54  49  83 S9        29.72F
DYERSBURG      CLOUDY    55  43  62 S13       29.69F
UNION CITY     CLOUDY    52  50  93 S13       29.68F
PARIS          CLOUDY    54  46  76 SE10      29.71F
LEXINGTON      CLOUDY    52  48  87 S10       29.74F
SAVANNAH       CLOUDY    52  52 100 S8        29.77F
$$

TNZ008-025-027-028-033-062-065-066-222000-
NORTH MIDDLE TENNESSEE

CITY           SKY/WX    TMP DP  RH WIND       PRES   REMARKS
NASHVILLE      CLOUDY    54  47  77 S14       29.80F
CLARKSVILLE    CLOUDY    53  47  79 SE9       29.76F
CROSSVILLE     CLOUDY    52  44  74 VRB6      29.85F
$$

TNZ061-075-076-078-094-096-097-222000-
SOUTH MIDDLE TENNESSEE

CITY           SKY/WX    TMP DP  RH WIND       PRES   REMARKS
TULLAHOMA      CLOUDY    50  45  81 SE10      29.82F
WINCHESTER     CLOUDY    48  46  93 E8        29.84F
SHELBYVILLE    CLOUDY    54  48  82 SE12      29.82F
$$

TNZ017-018-042-046-047-222000-
NORTHEAST TENNESSEE

CITY           SKY/WX    TMP DP  RH WIND       PRES   REMARKS
TRI CITIES     MOSUNNY   60  43  53 E8        29.89F
ELIZABETHTON   CLEAR     55  41  58 E9        29.91F
$$

TNZ012-013-036-069-073-074-222000-
CENTRAL EAST TENNESSEE

CITY           SKY/WX    TMP DP  RH WIND       PRES   REMARKS
KNOXVILLE      PTSUNNY   57  41  55 CALM      29.86F
OAK RIDGE      CLOUDY    55  40  56 CALM      29.89F
GATLINBURG     PTCLDY    57  41  54 NW3       29.86F
$$

TNZ083-085-099-222000-
SOUTHEAST TENNESSEE

CITY           SKY/WX    TMP DP  RH WIND       PRES   REMARKS
CHATTANOOGA    CLOUDY    50  44  80 S7        29.89F
$$

SKY/WX REPORTED AS FAIR MEANS FEW OR NO CLOUDS BELOW
12 THOUSAND FEET.



USA.gov is the U.S. government's official web portal to all federal, state and local government web resources and services.